Location: Austin
(30.3000°N, 97.7500°W)
Time: 04:05:37
(UTC-06:00)

Cosmos 405 Rocket - Pass Details

Date: 20 November 2023
Orbit: 469 x 519 km, 81.3° (Epoch: 04 December)

Event Time Altitude Azimuth Distance (km) Brightness Sun altitude
Rises 18:05:10 0° 145° (SE) 2,520 6.0 -7.5°
Reaches altitude 10° 18:08:15 10° 116° (ESE) 1,658 4.8 -8.1°
Maximum altitude 18:09:52 13° 89° (E) 1,510 4.5 -8.4°
Enters shadow 18:10:56 11° 71° (ENE) 1,584 4.5 -8.7°
